Temperature
18 17 17 17 17 17 17 17 17 17 17 17 17 17 17 17 17 17 17 17 17 16 16 16 16 16 16 16 16 16 16 16 16 16 16 16 16 16 16 16 15 15 15
17 17 17 17 17 17 17 17 17 17 17 17 17 17 17 17 17 17 17 17 16 16 16 16 16 16 16 16 16 16 16 16 16 16 16 16 16 16 15 15 15 15 15
17 17 17 17 17 17 17 17 17 17 17 17 17 17 17 17 17 17 17 16 16 16 16 16 16 16 16 16 16 16 16 16 16 16 16 16 16 15 15 15 15 15 15
17 17 17 17 17 17 17 17 17 17 17 17 16 17 17 16 16 16 16 16 16 16 16 16 16 16 16 16 16 16 16 16 16 16 16 16 15 15 15 15 15 15 15
17 17 17 17 17 17 17 17 17 17 16 16 16 16 16 16 16 16 16 16 16 16 16 16 16 16 16 16 16 16 16 16 15 15 15 15 15 15 15 15 15 15 15
17 17 17 17 17 17 17 16 16 16 16 16 16 16 16 16 16 16 16 16 16 16 16 16 16 16 16 16 16 16 15 15 15 15 15 15 15 15 15 15 15 15 15
17 17 17 17 16 16 16 16 16 16 16 16 16 16 16 16 16 16 16 16 16 16 16 16 16 16 16 16 16 15 15 15 15 15 15 15 15 15 15 15 15 15 15
17 17 17 16 16 16 16 16 16 16 16 16 16 16 16 16 16 16 16 16 16 16 16 16 16 16 16 16 15 15 15 15 15 15 15 15 15 15 15 15 15 15 15
17 17 17 16 16 16 16 16 16 16 16 16 16 16 16 16 16 16 16 16 16 16 16 16 16 16 16 16 16 15 15 15 15 15 15 15 15 15 15 15 15 15 15
17 16 16 16 16 16 16 16 16 16 16 16 16 16 16 16 16 16 17 16 16 16 16 16 16 16 16 16 16 16 15 15 15 15 15 15 15 15 15 15 15 15 15
17 16 16 16 16 16 16 16 16 16 16 16 16 16 16 16 16 16 17 17 17 17 16 16 16 16 16 16 16 16 15 15 15 15 15 15 15 15 15 15 15 15 15
17 16 16 16 16 16 16 16 16 16 16 16 16 16 16 16 16 16 17 17 17 17 17 17 16 16 16 16 16 16 16 16 15 15 15 15 15 15 15 15 15 15 15
17 16 16 16 16 16 16 16 16 16 16 16 16 16 16 16 16 16 16 17 17 17 17 17 17 16 16 16 16 16 16 16 15 15 15 15 15 15 15 15 15 15 15
17 16 16 16 16 16 16 16 16 16 16 16 16 16 16 16 16 16 16 16 16 16 16 16 16 16 16 16 16 16 16 16 16 15 15 15 15 15 15 15 15 15 15
16 16 16 16 16 16 16 16 15 15 15 15 15 15 16 16 16 16 16 16 16 16 16 16 16 16 16 16 16 16 16 16 16 15 15 15 15 15 15 15 14 14 14
16 16 16 16 16 16 16 15 15 15 15 15 15 15 15 16 16 16 16 16 15 15 15 15 15 15 15 16 16 16 16 15 15 15 15 15 15 15 14 14 14 14 14
16 16 16 16 16 16 15 15 15 15 15 15 15 15 15 15 15 15 15 15 15 15 15 15 15 15 15 15 15 15 15 15 15 15 15 15 14 14 14 14 14 14 14
16 16 16 16 16 15 15 15 15 15 15 15 15 15 15 15 15 15 15 15 15 15 14 14 14 14 14 14 15 15 15 15 15 14 14 14 14 14 14 14 14 14 14
16 16 16 16 16 15 15 15 15 15 15 15 15 15 15 14 14 14 14 14 14 14 14 14 14 14 14 14 14 14 14 14 14 14 14 13 13 13 13 13 13 13 13
16 16 16 16 15 15 15 15 15 15 15 15 15 14 14 14 14 14 14 14 14 14 14 13 13 13 13 13 13 13 13 13 13 13 13 13 12 12 12 12 12 12 12
16 16 15 15 15 15 15 15 15 15 15 14 14 14 14 14 14 14 14 13 13 13 13 13 13 12 12 12 12 12 12 12 12 12 12 12 11 11 11 11 11 11 11
15 15 15 15 15 15 15 14 14 14 14 14 14 14 13 13 13 13 13 13 13 12 12 12 12 11 11 11 11 11 11 11 11 11 10 11 10 10 10 10 10 10 10
15 15 15 15 15 14 14 14 14 14 14 13 13 13 13 13 12 12 12 12 12 11 11 11 10 10 10 9 9 9 9 9 9 9 9 9 9 9 9 9 9 9 9
15 15 14 14 14 14 14 14 14 13 13 13 12 12 12 12 12 11 11 11 11 10 10 9 9 8 8 8 8 8 8 8 8 8 7 7 8 8 8 8 8 8 7
14 14 14 14 14 13 13 13 13 13 12 12 12 11 11 11 10 10 10 10 9 9 8 8 7 7 7 7 7 7 7 7 7 7 6 6 6 6 7 7 7 7 7
14 14 13 13 13 12 12 12 12 12 11 11 11 10 10 10 9 9 9 8 8 7 7 7 6 6 6 6 6 6 6 5 5 5 5 5 4 4 4 5 6 6 6
Wind_Speed
4 4 4 4 5 5 5 4 4 4 4 4 5 6 6 7 7 8 8 10 10 10 10 10 9 9 9 8 8 8 8 8 8 8 8 7 7 7 7 6 6 6 6
6 5 4 4 4 4 4 4 4 4 3 3 3 4 5 6 7 7 7 8 9 10 9 9 9 9 9 9 9 9 9 8 8 9 9 8 8 7 7 7 6 6 6
8 6 4 3 4 5 5 4 4 4 3 2 2 2 3 4 6 7 6 6 7 9 9 9 9 9 9 9 9 10 9 9 9 9 9 10 9 9 8 8 8 7 7
10 7 4 4 5 6 5 4 3 3 2 2 2 1 1 2 4 5 5 5 6 7 8 9 9 9 9 9 9 10 10 10 10 11 11 11 11 10 10 10 9 9 9
10 8 5 5 7 5 4 4 2 2 2 2 2 2 1 1 2 3 4 5 6 7 7 8 9 10 9 10 9 10 10 11 12 12 12 12 12 12 12 12 11 11 11
10 9 6 6 6 4 3 3 3 2 2 2 3 3 2 1 0 1 3 4 5 7 7 7 7 7 9 10 10 10 10 11 12 12 12 13 13 13 14 13 13 13 13
10 9 5 5 5 5 5 5 3 3 2 2 3 2 2 2 1 1 2 2 4 6 6 7 7 7 7 9 10 10 10 11 11 12 13 13 13 14 15 15 15 15 15
10 9 7 6 5 5 5 4 4 3 2 2 3 3 2 3 2 1 1 2 3 3 5 7 8 8 8 7 8 10 11 11 11 11 12 13 13 14 14 15 15 16 16
10 9 9 7 6 6 6 5 5 5 3 1 1 3 3 3 2 2 1 1 1 2 3 5 6 8 8 8 8 10 11 11 11 11 12 12 13 13 14 14 15 16 16
9 10 9 8 6 5 6 5 4 4 5 3 1 1 2 3 2 1 2 1 1 2 3 3 5 6 8 8 9 10 11 11 12 12 12 12 13 14 14 14 14 14 15
7 8 9 8 6 5 6 5 5 4 3 4 3 2 2 1 1 2 1 2 2 2 2 3 4 5 7 7 8 10 11 11 11 11 12 12 12 12 13 13 13 13 13
4 6 7 7 7 6 6 6 5 6 4 4 3 3 3 3 2 2 2 1 2 2 2 2 3 4 5 6 8 9 10 11 11 11 11 11 11 12 12 12 13 13 13
4 6 6 6 6 6 7 6 6 5 5 5 4 3 2 2 2 3 2 1 1 2 2 2 2 3 4 4 6 8 8 9 9 10 10 10 11 11 11 12 13 13 13
6 6 7 7 7 7 7 6 5 5 5 5 5 4 3 2 2 3 3 3 1 1 2 2 2 2 3 3 5 6 6 8 8 9 9 10 10 11 11 12 12 13 13
6 7 7 7 7 7 7 7 5 5 5 4 4 4 3 2 2 2 2 3 3 2 2 2 2 3 4 4 5 4 4 6 7 8 9 9 10 10 10 11 12 13 13
7 8 7 7 7 6 6 6 5 4 5 4 3 4 3 2 2 2 2 2 2 3 2 2 1 2 4 5 6 4 4 6 6 6 7 8 9 9 10 11 11 12 13
8 8 8 7 7 7 7 6 6 6 6 4 4 4 3 3 2 2 2 2 2 2 3 2 1 2 3 4 6 6 6 5 5 6 6 6 7 8 9 10 11 12 13
8 8 8 7 7 7 7 7 7 6 6 6 5 4 4 3 3 2 2 2 2 2 2 2 1 2 2 4 4 5 6 6 6 8 9 8 8 8 8 9 9 10 11
7 7 7 7 7 7 7 6 6 6 5 5 5 5 4 4 3 2 2 2 1 1 1 1 1 2 2 3 4 4 5 6 7 8 9 10 10 10 9 9 9 8 9
7 7 6 6 6 6 6 6 6 6 5 4 4 4 4 4 3 3 2 2 2 2 2 1 1 2 2 2 3 4 4 4 4 6 8 8 9 10 10 10 10 10 9
7 6 6 6 5 5 5 6 6 6 7 6 6 5 5 6 6 5 3 3 3 3 2 2 1 2 3 3 3 3 4 5 3 4 5 6 7 7 8 9 9 10 10
7 7 6 6 5 4 6 8 8 7 7 7 7 6 6 8 10 11 11 9 7 4 3 2 2 2 3 3 3 3 4 4 3 5 5 6 5 5 7 8 10 11 11
7 7 7 7 6 6 8 10 11 9 8 7 6 6 6 7 8 9 12 15 14 14 9 4 4 3 3 3 3 4 4 3 4 5 5 4 4 5 8 9 12 12 12
8 8 8 8 8 8 10 12 13 11 10 9 8 7 7 7 7 8 9 11 11 10 10 8 6 5 5 4 3 3 3 3 3 3 4 4 5 6 8 9 9 11 12
9 8 8 9 10 9 12 13 13 11 11 10 9 9 9 9 10 10 10 10 9 8 12 15 14 13 14 13 9 5 5 4 4 3 4 4 5 7 7 6 8 12 15
10 11 11 10 10 9 11 13 13 9 11 9 9 10 12 11 12 11 9 9 8 6 6 7 9 11 11 12 13 8 5 4 4 3 4 5 5 6 6 5 8 13 14
Wind_Direction
155 155 153 151 148 141 134 131 124 118 111 119 138 152 160 163 166 171 180 185 186 185 181 179 179 178 177 176 177 177 176 176 174 170 170 171 170 170 170 169 170 167 167
166 162 158 159 161 159 153 147 136 125 116 118 126 149 160 168 175 176 186 194 196 194 192 192 192 192 192 191 192 192 190 190 188 187 187 187 186 187 187 189 188 186 186
173 169 163 170 175 165 147 131 117 107 111 112 116 142 154 166 177 186 193 199 205 204 204 205 204 205 205 206 206 205 204 203 201 200 202 201 201 201 202 203 204 204 206
177 169 168 179 173 158 145 134 125 108 111 120 131 135 149 162 180 189 194 202 210 213 215 216 216 217 218 220 220 218 215 213 209 211 212 211 212 214 215 215 218 218 218
181 173 173 174 163 149 147 152 127 128 130 126 120 89 72 128 192 199 207 213 217 220 225 229 229 228 228 231 231 231 225 222 219 220 222 222 222 223 224 225 227 227 227
178 172 166 163 157 145 148 144 125 100 107 124 106 77 50 37 110 222 228 225 227 229 232 237 241 242 240 241 242 242 238 232 227 227 229 230 231 230 230 230 232 233 234
176 170 165 160 161 160 162 150 125 115 100 108 91 50 20 24 32 259 244 238 238 235 233 236 241 243 248 249 251 249 247 242 237 234 234 236 237 236 236 236 236 238 239
177 177 168 169 166 153 147 151 136 123 106 111 121 98 34 354 345 342 262 238 245 237 236 238 236 238 243 250 254 253 252 250 247 243 241 242 242 242 242 241 241 243 243
180 177 174 167 165 161 163 165 156 145 142 111 111 138 144 214 289 321 309 276 258 236 249 255 246 244 244 247 254 255 254 254 253 252 249 246 246 247 246 246 247 249 250
177 176 172 168 164 162 161 168 163 152 143 147 121 98 137 151 151 304 320 317 289 248 251 254 254 249 245 246 251 255 257 258 258 257 254 251 250 249 248 248 250 253 254
175 173 168 164 163 164 163 158 153 154 150 154 156 146 124 96 117 151 265 318 327 296 269 258 260 258 252 247 252 256 258 259 262 262 260 259 259 256 252 250 252 254 257
172 170 168 167 167 166 166 164 160 159 154 147 153 156 155 156 172 164 185 248 290 306 310 292 269 262 260 253 254 258 259 261 263 264 265 266 267 265 262 260 259 260 263
179 180 174 171 170 171 167 159 157 161 159 156 161 165 162 161 153 151 151 169 272 312 322 312 296 289 276 264 264 264 265 265 266 267 267 269 270 270 269 268 267 265 266
181 173 172 174 173 169 164 157 154 163 163 164 167 160 153 163 162 163 159 151 138 329 327 309 330 332 314 294 281 275 273 273 271 272 272 272 272 273 273 273 273 270 267
171 169 172 172 169 165 161 156 158 163 159 166 167 163 156 159 166 169 160 159 157 191 267 304 319 340 342 335 321 299 283 292 290 284 280 279 278 278 279 279 278 277 275
168 166 169 167 165 163 160 156 154 158 156 162 161 157 152 147 148 151 159 160 162 170 217 266 289 328 348 355 360 347 325 320 314 308 300 295 291 288 287 286 285 284 281
169 170 171 168 168 167 164 163 164 162 163 162 158 158 159 147 144 149 141 146 159 164 205 266 289 329 356 8 13 16 12 5 353 346 335 325 317 309 303 297 294 291 287
172 172 168 168 173 172 170 171 169 167 167 169 167 158 163 150 140 139 140 153 169 183 198 237 319 350 5 8 8 13 15 16 12 15 14 5 353 342 332 323 317 311 304
164 164 164 168 171 171 170 171 166 163 164 164 159 157 159 146 140 133 130 135 141 148 166 184 331 359 1 8 2 8 14 11 12 18 20 17 14 9 3 359 355 350 341
154 156 158 159 162 164 165 163 156 149 144 137 132 131 132 137 139 134 120 114 111 101 93 95 45 5 353 352 7 1 356 360 359 11 11 10 14 15 13 13 9 5 359
149 146 142 139 143 151 162 157 151 145 133 119 103 98 98 99 99 99 100 99 101 97 91 81 57 28 14 9 6 352 349 343 353 10 353 357 1 6 4 360 358 359 0
125 122 125 130 131 143 143 145 138 129 125 119 109 94 85 81 83 80 79 75 75 84 89 84 64 46 22 6 355 357 353 354 341 357 345 336 351 352 352 348 346 348 348
120 114 114 113 109 105 119 123 123 119 111 107 103 97 89 80 82 86 79 71 63 60 66 89 77 51 25 2 354 357 357 347 320 328 331 319 334 336 339 337 341 345 348
115 112 108 107 104 98 102 108 110 104 97 90 89 93 95 86 85 93 89 79 70 59 59 67 73 55 41 21 16 359 336 327 309 337 351 319 328 326 325 321 331 342 343
109 104 101 103 102 94 97 105 105 102 96 86 79 79 87 84 79 90 92 86 75 61 61 64 64 58 50 43 38 32 17 6 348 344 0 336 325 321 311 305 322 333 332
107 101 93 89 93 92 94 102 106 108 103 95 83 75 74 82 80 81 87 88 79 58 55 53 48 43 40 38 36 34 20 7 349 334 355 342 328 332 316 307 321 325 324
Height
1554 1556 1558 1560 1562 1564 1565 1567 1569 1570 1572 1573 1575 1576 1577 1578 1579 1580 1581 1582 1583 1584 1585 1586 1587 1588 1588 1589 1590 1591 1592 1593 1594 1595 1596 1596 1597 1598 1598 1599 1599 1600 1600
1555 1557 1558 1561 1562 1564 1566 1568 1569 1571 1572 1574 1575 1576 1577 1578 1579 1580 1581 1582 1583 1584 1585 1586 1587 1588 1589 1589 1590 1591 1592 1593 1594 1595 1596 1596 1597 1598 1598 1599 1599 1600 1600
1555 1557 1559 1561 1563 1565 1566 1568 1569 1571 1573 1574 1575 1576 1578 1579 1579 1580 1581 1582 1583 1584 1585 1586 1587 1587 1588 1589 1590 1591 1592 1593 1594 1594 1595 1596 1597 1597 1598 1599 1599 1600 1600
1555 1557 1559 1561 1563 1564 1566 1568 1569 1571 1572 1574 1575 1576 1577 1578 1579 1580 1581 1582 1583 1584 1585 1585 1586 1587 1588 1589 1589 1590 1591 1592 1593 1594 1594 1595 1596 1596 1597 1598 1598 1599 1599
1554 1556 1558 1560 1562 1564 1566 1568 1569 1571 1572 1573 1575 1576 1577 1578 1579 1580 1581 1582 1582 1583 1584 1585 1586 1587 1587 1588 1588 1589 1590 1590 1591 1592 1593 1594 1594 1595 1596 1596 1597 1598 1598
1554 1556 1558 1560 1562 1563 1565 1567 1569 1570 1572 1573 1574 1575 1577 1578 1578 1579 1580 1581 1582 1583 1583 1584 1585 1586 1586 1586 1587 1587 1588 1589 1590 1590 1591 1592 1592 1593 1594 1594 1595 1596 1596
1553 1555 1557 1559 1561 1563 1565 1566 1568 1569 1571 1572 1574 1575 1576 1577 1578 1579 1579 1580 1581 1582 1582 1583 1584 1584 1585 1585 1586 1586 1587 1587 1588 1588 1589 1590 1590 1591 1592 1592 1593 1593 1594
1551 1553 1556 1558 1560 1562 1564 1565 1567 1569 1570 1572 1573 1574 1576 1578 1577 1578 1579 1579 1580 1581 1581 1582 1583 1583 1584 1584 1584 1585 1585 1586 1586 1586 1587 1587 1587 1588 1589 1589 1590 1590 1591
1549 1552 1554 1557 1559 1561 1562 1564 1566 1568 1569 1571 1572 1574 1575 1575 1576 1577 1578 1578 1579 1580 1581 1581 1581 1582 1582 1583 1583 1583 1583 1584 1584 1584 1584 1585 1585 1585 1586 1586 1587 1587 1588
1547 1550 1553 1555 1557 1559 1561 1563 1565 1567 1568 1570 1571 1573 1574 1575 1576 1576 1577 1577 1578 1579 1579 1580 1580 1581 1581 1581 1582 1582 1582 1582 1582 1582 1582 1582 1582 1582 1583 1583 1583 1584 1584
1545 1548 1550 1553 1555 1558 1560 1562 1563 1565 1567 1568 1570 1571 1573 1574 1574 1575 1575 1576 1577 1578 1578 1578 1579 1579 1579 1579 1580 1580 1580 1580 1580 1580 1580 1580 1580 1580 1580 1580 1580 1580 1580
1543 1545 1548 1551 1553 1556 1558 1560 1562 1564 1565 1567 1569 1570 1571 1572 1573 1574 1575 1575 1576 1576 1577 1577 1577 1577 1577 1577 1578 1578 1578 1578 1578 1578 1578 1578 1577 1577 1577 1577 1577 1577 1577
1540 1543 1545 1548 1551 1554 1556 1558 1560 1562 1564 1565 1567 1568 1570 1571 1572 1573 1574 1574 1574 1575 1575 1576 1576 1576 1576 1576 1576 1576 1576 1576 1576 1576 1575 1575 1575 1574 1574 1574 1573 1573 1573
1538 1541 1543 1546 1549 1552 1554 1556 1558 1560 1562 1564 1565 1567 1568 1569 1570 1571 1572 1573 1573 1573 1573 1574 1574 1574 1573 1573 1573 1573 1573 1573 1573 1573 1573 1572 1572 1571 1571 1570 1570 1569 1569
1535 1538 1541 1544 1547 1549 1552 1554 1556 1558 1560 1562 1563 1565 1566 1567 1569 1570 1570 1571 1572 1571 1571 1571 1572 1571 1571 1571 1571 1571 1571 1570 1570 1570 1570 1569 1569 1568 1567 1567 1566 1565 1565
1532 1535 1539 1541 1544 1547 1549 1552 1554 1556 1558 1560 1561 1563 1564 1565 1566 1567 1568 1568 1569 1569 1569 1569 1569 1569 1568 1568 1568 1568 1567 1567 1567 1566 1566 1565 1564 1564 1563 1562 1562 1561 1560
1530 1533 1536 1539 1542 1544 1547 1549 1552 1554 1556 1557 1559 1561 1562 1563 1564 1565 1565 1566 1566 1567 1567 1567 1566 1566 1566 1565 1565 1564 1564 1563 1563 1562 1562 1561 1560 1559 1558 1557 1556 1555 1555
1528 1531 1534 1537 1540 1542 1545 1548 1550 1552 1554 1555 1557 1558 1560 1561 1562 1562 1563 1563 1563 1564 1564 1563 1563 1563 1562 1561 1561 1560 1559 1559 1558 1557 1556 1556 1555 1554 1553 1552 1550 1549 1549
1525 1529 1532 1535 1538 1540 1543 1546 1548 1550 1552 1553 1555 1556 1557 1558 1559 1560 1560 1560 1561 1561 1560 1560 1560 1559 1558 1558 1557 1556 1555 1554 1553 1552 1551 1550 1549 1548 1546 1545 1544 1543 1542
1523 1526 1529 1532 1535 1539 1541 1544 1546 1548 1550 1551 1552 1554 1555 1556 1557 1557 1557 1557 1557 1557 1557 1557 1556 1555 1555 1553 1552 1552 1551 1550 1548 1547 1546 1544 1543 1542 1540 1539 1538 1536 1535
1522 1525 1528 1530 1533 1536 1539 1541 1544 1546 1547 1549 1550 1551 1552 1553 1554 1554 1555 1554 1554 1554 1554 1553 1553 1552 1551 1550 1549 1547 1546 1545 1544 1542 1541 1539 1538 1536 1535 1533 1532 1530 1528
1520 1523 1526 1529 1531 1534 1536 1539 1541 1543 1545 1546 1547 1549 1550 1551 1551 1552 1552 1551 1552 1551 1551 1550 1549 1549 1548 1547 1545 1544 1542 1541 1539 1538 1536 1535 1533 1531 1529 1528 1526 1524 1522
1519 1522 1524 1527 1530 1532 1535 1537 1539 1541 1542 1544 1545 1547 1548 1548 1549 1549 1549 1549 1549 1549 1548 1548 1547 1546 1545 1543 1542 1541 1539 1538 1536 1534 1532 1529 1528 1526 1524 1522 1520 1518 1516
1518 1520 1523 1526 1528 1531 1533 1535 1536 1538 1540 1542 1543 1545 1546 1546 1547 1547 1547 1546 1546 1546 1545 1545 1544 1543 1542 1541 1540 1539 1537 1535 1533 1531 1528 1526 1523 1521 1519 1517 1515 1513 1510
1516 1519 1522 1525 1527 1529 1532 1534 1535 1536 1538 1540 1542 1543 1544 1545 1545 1545 1545 1545 1544 1544 1544 1543 1542 1541 1540 1539 1537 1536 1534 1531 1529 1527 1524 1522 1519 1516 1513 1512 1510 1507 1504
1515 1517 1520 1523 1526 1528 1531 1533 1535 1536 1537 1539 1540 1541 1542 1543 1544 1544 1544 1544 1544 1543 1543 1542 1541 1540 1538 1537 1535 1533 1531 1529 1526 1524 1521 1519 1515 1512 1508 1506 1504 1501 1498